Wind_Speed
3 2 1 1 1 1 1 1 1 2 3 4 4 5 5 5 5 5 6 6 6 6 6 6 7 6 6 6 6 6 5 5 5 5 5 5 6 6 6 6 6 6 7
2 1 1 0 1 2 2 2 2 1 1 2 3 3 3 3 3 3 3 3 4 4 3 4 4 4 4 4 4 4 4 4 4 4 4 4 5 6 6 6 6 6 6
1 1 1 1 2 3 3 4 3 3 3 2 2 2 2 2 2 2 2 1 1 1 1 1 1 1 1 2 2 2 3 3 3 3 3 4 4 5 5 5 5 5 6
1 1 1 2 4 4 5 5 5 5 5 4 3 3 3 3 3 2 2 2 2 2 2 2 2 2 1 1 1 0 1 1 2 2 3 3 3 4 4 5 5 5 6
2 3 3 4 5 6 6 6 7 6 6 6 5 5 5 5 4 4 4 4 4 4 5 5 5 5 4 4 3 3 2 2 2 3 3 3 3 4 5 5 5 6 6
4 4 5 6 7 7 7 8 8 8 8 8 8 7 7 6 6 6 6 6 6 6 6 6 7 7 7 7 6 5 5 5 4 4 4 4 4 5 5 6 6 6 7
5 6 6 7 8 9 9 9 10 10 10 10 10 10 9 9 8 8 8 7 7 7 8 8 8 9 9 9 9 9 8 7 7 7 6 6 6 6 7 7 8 8 8
6 7 8 10 11 11 12 12 12 13 13 13 13 13 12 11 10 10 10 9 9 9 10 10 10 10 10 10 11 11 11 10 10 10 9 9 9 9 9 9 9 9 9
8 9 11 12 13 13 14 14 14 15 15 15 15 15 14 14 13 13 12 12 12 12 12 12 12 12 12 12 13 13 13 13 13 13 12 12 12 11 11 11 11 11 11
10 11 13 14 15 15 15 16 17 17 17 18 18 18 17 17 17 16 16 15 15 15 15 14 14 14 14 14 15 15 15 15 16 16 16 15 15 14 14 14 14 13 13
12 14 15 16 16 17 18 19 19 19 19 21 21 22 22 21 21 19 18 18 17 17 17 17 16 16 17 17 17 17 18 18 18 18 18 18 18 18 17 17 17 16 16
15 17 18 18 19 19 20 20 21 21 21 21 22 23 23 22 22 22 22 21 20 20 19 19 19 19 18 18 18 18 19 19 19 19 19 20 21 21 21 20 20 19 19
18 19 19 19 20 20 20 21 22 22 23 22 23 24 24 23 23 24 24 24 24 23 23 23 22 21 20 20 20 19 20 20 20 20 20 20 21 23 23 24 23 23 22
20 21 21 21 20 20 21 22 23 23 24 24 24 24 23 23 23 24 26 26 25 24 24 24 23 22 21 22 22 22 21 21 21 21 21 21 22 24 25 25 26 26 25
22 22 21 20 21 20 21 22 22 24 24 24 24 23 23 23 23 25 26 27 27 26 25 25 24 24 24 23 23 24 22 23 23 23 23 23 24 24 26 27 26 27 28
23 22 21 21 22 21 21 22 23 23 22 23 24 25 24 23 24 24 24 25 25 25 25 26 25 26 26 26 25 25 24 23 24 24 25 25 25 25 26 27 28 27 29
21 22 21 21 22 21 21 21 20 21 20 20 21 22 22 22 23 25 25 24 25 25 25 26 26 26 27 27 26 27 27 26 26 26 26 27 28 27 27 28 29 29 29
21 21 20 20 19 18 19 19 19 19 20 20 20 22 22 23 24 25 26 25 25 26 26 26 27 28 28 28 27 28 28 29 29 28 29 29 29 29 29 30 30 31 31
19 19 19 18 18 17 17 18 19 20 20 21 22 23 24 25 25 25 26 26 26 27 28 28 28 29 29 29 29 29 29 30 31 31 30 30 30 31 31 31 32 33 33
17 17 17 17 17 17 17 18 18 19 20 21 23 24 25 26 27 27 27 27 28 29 29 29 30 31 32 32 32 32 32 32 33 33 33 33 32 32 33 33 33 34 34
16 16 16 17 17 17 18 19 19 20 21 23 24 25 26 26 27 28 28 28 29 30 30 31 31 32 33 33 33 34 34 34 35 35 35 35 35 34 34 34 34 35 35
14 15 15 16 17 18 19 19 20 22 23 24 26 26 27 27 28 28 29 29 29 30 31 31 32 33 33 34 34 35 35 36 37 37 37 37 37 36 36 35 35 35 36
14 15 17 17 17 18 19 20 22 23 24 25 27 27 28 28 29 29 29 29 30 30 30 31 32 32 33 34 34 35 36 37 37 37 38 39 39 39 38 37 36 37 36
15 16 17 17 17 18 20 21 23 24 25 26 27 28 28 29 29 29 29 30 30 31 31 31 32 33 33 34 34 35 36 36 37 37 38 39 40 40 40 39 38 38 37
15 16 16 17 18 20 21 23 23 24 25 26 27 27 28 28 28 29 29 30 30 31 31 32 33 34 34 35 35 36 36 37 37 38 39 39 40 41 41 40 40 39 39
15 16 17 19 20 21 22 23 23 24 24 25 26 27 27 28 28 28 29 30 31 32 32 33 34 35 35 36 37 37 38 38 38 39 39 40 41 41 42 41 41 41 40
Wind_Direction
71 76 76 55 344 321 309 293 168 136 126 123 120 114 107 102 99 95 89 85 85 86 85 84 85 85 85 86 86 90 91 89 89 93 101 110 113 114 117 120 126 132 135
58 49 49 330 292 300 298 295 282 252 182 148 144 136 124 115 111 107 100 90 84 83 83 81 81 83 84 87 90 93 99 100 99 99 106 117 120 122 122 125 129 135 140
44 29 359 291 280 282 283 284 279 271 256 232 204 190 180 172 159 151 147 132 109 92 80 67 62 63 75 86 97 100 106 111 116 120 120 126 130 132 134 134 136 141 146
327 322 306 282 277 272 271 275 270 267 261 256 245 233 228 226 226 228 222 224 233 239 246 263 277 283 285 282 265 180 155 150 152 155 152 145 149 149 151 149 148 150 153
312 304 297 289 282 275 272 271 267 266 263 261 257 250 247 246 245 248 250 251 253 254 255 260 267 270 273 272 269 263 249 228 207 197 190 178 176 176 170 167 164 164 164
309 305 298 293 289 281 276 274 271 270 267 266 263 258 257 256 256 257 257 257 260 263 265 266 268 269 269 267 265 263 257 247 233 222 216 209 200 194 189 185 181 179 177
311 314 307 297 288 281 278 276 275 274 272 272 269 265 262 259 258 257 257 259 264 266 268 270 271 270 268 265 262 260 258 251 244 234 228 223 217 212 207 202 195 192 190
310 310 304 296 286 281 279 276 275 273 274 275 274 270 265 262 261 259 259 263 265 266 268 270 270 269 266 264 262 260 257 252 248 242 235 230 226 222 218 214 207 201 199
305 304 301 296 287 282 278 277 277 275 273 272 272 271 268 265 263 261 263 264 265 265 267 268 267 265 263 263 262 260 258 254 251 246 240 235 231 227 224 221 216 210 205
299 299 299 295 288 284 281 279 279 276 273 273 271 268 266 263 261 261 263 264 265 267 268 267 266 264 263 262 262 259 256 255 253 249 243 239 235 232 228 225 221 217 213
299 299 298 291 288 286 280 278 278 278 275 273 272 268 267 264 262 262 264 264 264 266 267 266 267 267 264 262 261 259 257 256 254 252 247 242 238 235 232 229 226 223 219
296 296 296 292 288 284 279 277 278 279 279 278 277 276 272 268 266 266 266 266 265 266 266 266 267 268 267 265 263 260 257 257 255 254 251 245 240 237 234 232 229 227 225
292 293 293 291 289 282 277 277 278 279 279 277 278 276 277 272 269 267 269 270 267 267 268 269 269 269 268 267 268 264 260 258 258 256 252 249 244 239 237 235 232 229 227
290 291 291 289 287 280 278 277 277 279 278 277 276 276 277 275 273 274 275 272 272 270 271 271 272 270 269 269 268 266 262 259 257 256 254 253 250 244 239 237 235 233 230
290 289 288 285 286 284 281 278 280 280 279 278 280 279 281 280 278 281 278 275 273 273 273 272 272 273 270 271 268 264 263 260 258 257 256 253 252 249 243 238 238 238 235
286 288 284 282 284 284 284 282 282 281 279 279 279 280 283 283 281 282 284 279 275 274 275 275 272 272 272 271 269 266 264 263 260 258 256 254 252 248 245 240 240 241 239
287 288 284 282 283 284 283 284 290 285 282 283 283 282 283 284 284 283 281 282 277 276 278 276 274 275 273 271 270 266 264 264 261 259 257 254 251 250 247 244 243 242 241
287 288 288 285 289 287 285 285 290 288 286 285 286 286 285 287 288 287 282 283 281 280 278 277 275 276 274 273 271 267 264 263 262 259 258 254 251 249 248 247 246 243 243
289 288 291 290 289 288 291 292 292 291 288 288 289 290 290 290 288 288 284 284 284 283 280 279 278 276 274 272 270 268 265 263 261 258 258 255 251 249 248 247 246 244 242
289 290 291 289 290 291 293 296 295 295 295 293 293 293 292 290 289 288 285 284 284 283 281 279 277 275 273 270 268 267 265 264 260 258 257 256 253 250 248 248 246 245 243
291 290 292 293 292 293 296 298 300 299 298 297 296 295 294 293 291 290 288 286 284 282 281 278 276 274 272 270 268 267 265 263 261 258 255 255 253 251 249 249 247 245 244
295 297 301 302 301 301 301 303 304 302 301 300 299 299 297 296 294 292 290 288 286 284 281 279 277 275 273 270 268 266 264 262 260 258 255 254 252 251 250 249 247 245 244
301 304 307 307 306 306 306 306 304 303 301 301 301 300 300 299 297 295 293 290 288 286 283 280 278 276 273 271 269 266 264 261 260 258 255 253 251 250 250 249 247 245 245
307 306 307 308 309 309 308 306 305 304 302 302 302 301 300 299 297 295 293 290 288 286 283 281 279 277 274 272 269 267 264 262 259 257 256 254 251 249 249 248 246 245 244
308 310 309 309 309 309 308 307 307 306 305 304 303 302 300 298 296 294 293 291 289 286 284 282 279 277 275 273 270 267 265 262 259 256 254 253 252 249 247 246 245 244 243
309 309 309 310 310 311 311 311 310 310 308 307 306 305 303 301 299 297 295 293 291 288 285 283 280 278 276 274 271 269 266 263 260 256 253 251 251 249 247 246 245 243 242
Height
5923 5922 5922 5921 5921 5921 5920 5920 5920 5919 5919 5918 5917 5917 5916 5916 5915 5915 5914 5914 5913 5913 5912 5911 5911 5910 5910 5910 5909 5908 5908 5907 5907 5907 5906 5906 5906 5906 5906 5906 5906 5907 5907
5923 5922 5922 5921 5921 5921 5920 5920 5920 5919 5919 5918 5917 5917 5916 5916 5915 5915 5914 5914 5913 5913 5913 5912 5912 5911 5911 5910 5910 5909 5909 5908 5908 5907 5907 5907 5906 5907 5907 5907 5907 5907 5908
5922 5921 5921 5921 5921 5920 5920 5920 5919 5919 5918 5918 5917 5916 5916 5915 5915 5914 5914 5914 5913 5913 5913 5912 5912 5912 5911 5911 5910 5910 5909 5909 5908 5908 5908 5907 5907 5907 5907 5908 5908 5908 5909
5921 5920 5920 5920 5920 5920 5920 5919 5918 5918 5917 5917 5916 5916 5915 5915 5914 5914 5913 5913 5913 5913 5912 5912 5912 5911 5911 5911 5910 5910 5909 5909 5909 5908 5908 5908 5907 5908 5908 5908 5908 5909 5909
5920 5919 5919 5919 5919 5919 5919 5918 5917 5917 5916 5915 5915 5914 5914 5913 5913 5913 5912 5912 5912 5912 5911 5911 5911 5911 5910 5910 5910 5909 5909 5909 5908 5908 5908 5908 5908 5908 5908 5909 5909 5909 5910
5919 5918 5918 5918 5918 5917 5917 5916 5916 5915 5915 5914 5913 5913 5912 5912 5911 5911 5911 5911 5910 5910 5910 5910 5910 5909 5909 5909 5909 5909 5909 5908 5908 5908 5908 5908 5908 5908 5908 5909 5909 5910 5911
5917 5917 5917 5916 5916 5915 5915 5914 5914 5913 5913 5913 5912 5911 5910 5910 5909 5909 5909 5909 5909 5909 5908 5908 5908 5907 5907 5907 5907 5907 5907 5907 5907 5907 5907 5907 5908 5908 5909 5909 5909 5910 5911
5915 5915 5914 5914 5914 5913 5913 5912 5911 5911 5911 5910 5910 5909 5908 5908 5907 5907 5906 5906 5906 5906 5906 5906 5905 5905 5905 5905 5905 5905 5905 5905 5906 5906 5906 5906 5907 5907 5908 5908 5909 5909 5910
5914 5913 5912 5912 5911 5910 5910 5909 5908 5908 5908 5907 5907 5906 5905 5905 5904 5904 5903 5903 5903 5903 5903 5902 5902 5902 5902 5902 5902 5902 5902 5903 5903 5904 5904 5905 5905 5906 5907 5907 5908 5909 5909
5911 5911 5910 5909 5908 5907 5906 5906 5905 5904 5904 5903 5903 5902 5902 5901 5900 5900 5900 5900 5899 5899 5899 5899 5899 5898 5898 5899 5899 5899 5899 5899 5900 5900 5901 5902 5903 5904 5905 5905 5906 5907 5908
5909 5908 5907 5906 5905 5903 5902 5902 5901 5901 5900 5899 5898 5897 5897 5896 5896 5896 5895 5895 5895 5895 5895 5895 5895 5895 5894 5894 5894 5895 5895 5896 5896 5897 5897 5899 5900 5901 5902 5903 5904 5905 5906
5906 5905 5904 5902 5901 5899 5898 5898 5897 5896 5895 5894 5893 5892 5892 5891 5891 5891 5891 5890 5890 5890 5890 5890 5890 5890 5890 5890 5890 5890 5890 5891 5892 5892 5893 5894 5895 5897 5898 5900 5901 5902 5903
5903 5902 5901 5899 5897 5895 5895 5894 5893 5892 5890 5889 5888 5887 5887 5886 5886 5886 5886 5885 5885 5885 5885 5885 5884 5885 5884 5885 5885 5885 5886 5886 5887 5888 5889 5890 5891 5892 5894 5895 5897 5898 5900
5900 5899 5897 5896 5894 5892 5891 5890 5888 5887 5886 5885 5883 5882 5882 5881 5881 5880 5880 5880 5880 5879 5879 5879 5879 5879 5879 5879 5879 5879 5880 5881 5881 5883 5884 5885 5886 5887 5888 5890 5892 5893 5895
5895 5894 5893 5891 5890 5888 5886 5885 5884 5882 5881 5880 5878 5877 5877 5877 5877 5876 5875 5874 5874 5874 5873 5873 5873 5873 5873 5873 5873 5873 5874 5875 5876 5876 5878 5879 5880 5882 5883 5885 5886 5888 5890
5890 5890 5888 5887 5885 5883 5882 5881 5880 5878 5877 5876 5875 5874 5873 5872 5871 5870 5869 5869 5868 5868 5867 5867 5867 5867 5866 5866 5867 5867 5868 5869 5869 5870 5871 5873 5874 5876 5877 5879 5881 5883 5885
5886 5885 5884 5882 5881 5879 5878 5877 5876 5874 5873 5871 5870 5869 5868 5867 5866 5865 5864 5864 5862 5861 5861 5860 5860 5860 5860 5860 5860 5861 5862 5862 5863 5864 5865 5866 5868 5870 5871 5873 5875 5877 5878
5882 5881 5879 5878 5876 5875 5873 5872 5871 5870 5868 5866 5865 5864 5863 5862 5861 5859 5858 5858 5856 5855 5854 5854 5854 5854 5853 5853 5854 5854 5855 5856 5857 5857 5858 5859 5861 5863 5865 5867 5868 5870 5872
5877 5876 5875 5874 5872 5871 5869 5867 5866 5865 5863 5861 5860 5859 5857 5856 5854 5853 5852 5851 5849 5848 5847 5847 5847 5847 5846 5846 5846 5846 5847 5848 5849 5850 5851 5852 5853 5855 5858 5859 5861 5863 5865
5873 5872 5871 5869 5868 5867 5866 5864 5862 5860 5858 5856 5855 5853 5851 5849 5848 5846 5845 5843 5842 5841 5840 5839 5839 5839 5838 5838 5838 5838 5839 5839 5841 5842 5843 5844 5846 5847 5849 5851 5853 5855 5858
5869 5868 5867 5865 5864 5863 5862 5859 5857 5855 5853 5851 5849 5847 5845 5843 5841 5839 5837 5836 5834 5833 5832 5831 5831 5830 5830 5830 5830 5830 5830 5831 5832 5833 5834 5836 5837 5839 5841 5842 5845 5847 5849
5865 5864 5863 5861 5860 5858 5857 5854 5852 5850 5847 5845 5843 5840 5838 5836 5834 5831 5830 5828 5826 5825 5824 5823 5822 5821 5821 5821 5821 5821 5822 5823 5823 5824 5825 5826 5828 5830 5832 5834 5836 5839 5841
5862 5861 5859 5857 5855 5854 5852 5849 5847 5845 5842 5839 5836 5834 5831 5828 5826 5824 5822 5820 5818 5816 5815 5814 5813 5812 5812 5812 5811 5812 5812 5813 5813 5814 5815 5817 5818 5820 5823 5825 5827 5830 5832
5859 5857 5855 5854 5852 5850 5847 5845 5842 5839 5836 5833 5830 5827 5824 5822 5819 5817 5815 5812 5810 5808 5807 5806 5805 5803 5802 5802 5802 5802 5802 5803 5803 5804 5805 5806 5808 5810 5813 5816 5818 5821 5823
5855 5854 5852 5850 5848 5846 5843 5840 5837 5834 5831 5827 5824 5821 5818 5815 5812 5810 5807 5805 5803 5800 5799 5797 5796 5794 5793 5792 5792 5792 5792 5792 5793 5794 5795 5797 5798 5800 5803 5806 5808 5811 5814
5853 5851 5848 5846 5844 5841 5838 5834 5831 5828 5825 5821 5818 5815 5812 5808 5805 5802 5800 5797 5794 5792 5790 5788 5786 5785 5783 5782 5781 5781 5781 5782 5783 5783 5785 5786 5788 5790 5793 5796 5799 5802 5804